Date String (YYYY-MM-DD hh:mm:ss) UTC,Instrument flags,absolute air pressure of the measurement (hPa),sample flow rate (lpm),inlet stack bypass flow (lpm),air temperature of the measurement (°C),ambient temperature measured by the external sensor (°C),aerosol sample conditioner tube jacket temperature (°C),OPC LED temperature (°C),internal box temperature (°C),relative humidity of the measurement (%),span deviation,mass concentration of particles derived from Lorenz-Mie calculation of OPC scattering (μg/m³),mass concentration of particles derived from Lorenz-Mie calculation of OPC scattering (μg/m³),mass concentration of particles derived from Lorenz-Mie calculation of OPC scattering (μg/m³)
DateTimeUTC,F1_M11,P_M11,Q1_M11,Q2_M11,T1_M11,T2_M11,T3_M11,T4_M11,T5_M11,U1_M11,ZSPAN_M11,X0_M11,X2_M11,X1_M11
2023-12-18 11:00:00,SystemResetWarning,0833.8,5.00,000.00,019.9,018.9,000.0,028.4,021.2,11.0,0000.0,0001.81,0001.26,0001.06
2023-12-18 11:01:00,SystemResetWarning,0833.8,5.00,000.00,019.9,018.9,000.0,028.4,021.2,11.0,0000.0,0001.79,0001.24,0001.05
2023-12-18 11:02:00,SystemResetWarning,0833.8,5.00,000.00,019.9,018.9,000.0,028.4,021.1,11.0,0000.0,0001.78,0001.24,0001.05
2023-12-18 11:03:00,SystemResetWarning,0833.8,5.00,000.00,019.9,018.8,000.0,028.4,021.1,11.0,0000.0,0001.76,0001.24,0001.06
2023-12-18 11:04:00,SystemResetWarning,0833.8,5.00,000.00,019.9,018.8,000.0,028.4,021.1,11.0,0000.0,0001.76,0001.24,0001.06
2023-12-18 11:05:00,SystemResetWarning,0833.8,5.00,000.00,019.9,018.8,000.0,028.3,021.1,11.0,0000.0,0001.77,0001.24,0001.05
2023-12-18 11:06:00,SystemResetWarning,0833.8,5.00,000.00,019.9,018.8,000.0,028.3,021.1,11.1,0000.0,0002.58,0001.24,0001.05
2023-12-18 11:07:00,SystemResetWarning,0833.8,5.00,000.00,019.9,018.8,000.0,028.3,021.1,11.0,0000.0,0003.20,0001.26,0001.05
2023-12-18 11:08:00,SystemResetWarning,0833.8,5.00,000.00,019.9,018.8,000.0,028.3,021.1,11.0,0000.0,0003.60,0001.27,0001.04
2023-12-18 11:09:00,SystemResetWarning,0833.7,5.00,000.00,019.9,018.8,000.0,028.3,021.1,11.0,0000.0,0003.60,0001.27,0001.04
2023-12-18 11:10:00,SystemResetWarning,0833.8,5.00,000.00,019.9,018.8,000.0,028.3,021.1,11.0,0000.0,0003.53,0001.24,0001.03
2023-12-18 11:11:00,SystemResetWarning,0833.8,4.99,000.00,019.8,018.8,000.0,028.3,021.1,11.0,0000.0,0003.50,0001.24,0001.02
2023-12-18 11:12:00,SystemResetWarning,0833.8,5.00,000.00,019.8,018.8,000.0,028.3,021.1,11.1,0000.0,0003.58,0001.28,0001.01
2023-12-18 11:13:00,SystemResetWarning,0833.7,5.01,000.00,019.8,018.7,000.0,028.3,021.1,11.1,0000.0,0004.38,0001.32,0001.00
2023-12-18 11:14:00,SystemResetWarning,0833.8,5.01,000.00,019.8,018.7,000.0,028.3,021.0,11.0,0000.0,0004.47,0001.32,0000.99
2023-12-18 11:15:00,SystemResetWarning,0833.7,5.00,000.00,019.8,018.7,000.0,028.3,021.0,11.0,0000.0,0004.49,0001.32,0000.99
2023-12-18 11:16:00,SystemResetWarning,0833.7,5.01,000.00,019.8,018.7,000.0,028.2,021.0,11.0,0000.0,0004.48,0001.32,0000.99
2023-12-18 11:17:00,SystemResetWarning,0833.7,5.00,000.00,019.8,018.7,000.0,028.2,021.0,11.0,0000.0,0004.06,0001.36,0000.98
2023-12-18 11:18:00,SystemResetWarning,0833.6,4.99,000.00,019.8,018.7,000.0,028.2,021.0,11.0,0000.0,0003.35,0001.37,0000.98
2023-12-18 11:19:00,SystemResetWarning,0833.6,5.00,000.00,019.8,018.7,000.0,028.2,021.0,11.1,0000.0,0003.01,0001.37,0000.99
2023-12-18 11:20:00,SystemResetWarning,0833.7,4.99,000.00,019.8,018.7,000.0,028.2,020.9,11.1,0000.0,0002.90,0001.35,0000.99
2023-12-18 11:21:00,SystemResetWarning,0833.7,4.99,000.00,019.7,018.7,000.0,028.2,021.0,11.1,0000.0,0003.58,0001.41,0001.00
2023-12-18 11:22:00,SystemResetWarning,0833.7,4.99,000.00,019.7,018.6,000.0,028.2,021.0,11.1,0000.0,0003.77,0001.40,0001.01
2023-12-18 11:23:00,SystemResetWarning,0833.7,5.00,000.00,019.7,018.6,000.0,028.2,020.9,11.1,0000.0,0003.78,0001.37,0001.02
2023-12-18 11:24:00,SystemResetWarning,0833.7,5.01,000.00,019.7,018.7,000.0,028.2,020.9,11.1,0000.0,0003.15,0001.35,0001.03
2023-12-18 11:25:00,SystemResetWarning,0833.7,5.01,000.00,019.7,018.6,000.0,028.1,020.9,11.1,0000.0,0002.95,0001.35,0001.04
2023-12-18 11:26:00,SystemResetWarning,0833.7,5.00,000.00,019.7,018.6,000.0,028.1,020.9,11.1,0000.0,0003.08,0001.39,0001.04
2023-12-18 11:27:00,SystemResetWarning,0833.6,4.99,000.00,019.7,018.6,000.0,028.1,020.9,11.1,0000.0,0003.23,0001.42,0001.04
2023-12-18 11:28:00,SystemResetWarning,0833.6,4.99,000.00,019.6,018.7,000.0,028.1,020.9,11.1,0000.0,0003.17,0001.39,0001.03
2023-12-18 11:29:00,SystemResetWarning,0833.5,5.00,000.00,019.6,018.6,000.0,028.1,020.9,11.1,0000.0,0003.02,0001.34,0001.03
2023-12-18 11:30:00,SystemResetWarning,0833.6,5.01,000.00,019.6,018.6,000.0,028.1,020.9,11.1,0000.0,0002.81,0001.30,0001.03
2023-12-18 11:31:00,SystemResetWarning,0833.6,5.00,000.00,019.6,018.6,000.0,028.1,020.9,11.1,0000.0,0003.19,0001.32,0001.02
2023-12-18 11:32:00,SystemResetWarning,0833.6,5.00,000.00,019.6,018.6,000.0,028.1,020.9,11.1,0000.0,0003.08,0001.31,0001.01
2023-12-18 11:33:00,SystemResetWarning,0833.6,5.00,000.00,019.6,018.6,000.0,028.1,020.9,11.2,0000.0,0002.75,0001.30,0001.01
2023-12-18 11:34:00,SystemResetWarning,0833.7,4.99,000.00,019.6,018.6,000.0,028.1,020.8,11.2,0000.0,0002.66,0001.28,0001.01
2023-12-18 11:35:00,SystemResetWarning,0833.6,5.00,000.00,019.6,018.6,000.0,028.0,020.8,11.2,0000.0,0002.61,0001.26,0001.00
2023-12-18 11:36:00,SystemResetWarning,0833.6,5.00,000.00,019.6,018.6,000.0,028.0,020.8,11.1,0000.0,0002.73,0001.27,0000.99
2023-12-18 11:37:00,SystemResetWarning,0833.6,5.00,000.00,019.6,018.6,000.0,028.0,020.8,11.2,0000.0,0003.48,0001.27,0001.00
2023-12-18 11:38:00,SystemResetWarning,0833.6,5.00,000.00,019.6,018.5,000.0,028.0,020.8,11.2,0000.0,0003.39,0001.27,0001.01
2023-12-18 11:39:00,SystemResetWarning,0833.6,5.00,000.00,019.6,018.5,000.0,028.0,020.8,11.2,0000.0,0003.36,0001.27,0001.01
2023-12-18 11:40:00,SystemResetWarning,0833.5,5.01,000.00,019.6,018.5,000.0,028.0,020.8,11.2,0000.0,0003.94,0001.26,0001.01
2023-12-18 11:41:00,SystemResetWarning,0833.5,5.00,000.00,019.6,018.5,000.0,028.0,020.8,11.2,0000.0,0004.20,0001.25,0001.01
2023-12-18 11:42:00,SystemResetWarning,0833.5,4.99,000.00,019.5,018.5,000.0,028.0,020.8,11.2,0000.0,0003.96,0001.29,0001.01
2023-12-18 11:43:00,SystemResetWarning,0833.4,4.99,000.00,019.5,018.5,000.0,028.0,020.8,11.2,0000.0,0003.53,0001.25,0001.01
2023-12-18 11:44:00,SystemResetWarning,0833.5,5.00,000.00,019.5,018.5,000.0,028.0,020.8,11.2,0000.0,0003.58,0001.24,0001.01
2023-12-18 11:45:00,SystemResetWarning,0833.4,5.00,000.00,019.5,018.5,000.0,028.0,020.8,11.2,0000.0,0003.68,0001.26,0001.01
2023-12-18 11:46:00,SystemResetWarning,0833.4,5.01,000.00,019.5,018.5,000.0,028.0,020.8,11.2,0000.0,0003.82,0001.27,0001.01
2023-12-18 11:47:00,SystemResetWarning,0833.4,5.01,000.00,019.5,018.5,000.0,027.9,020.7,11.2,0000.0,0003.91,0001.29,0001.00
2023-12-18 11:48:00,SystemResetWarning,0833.4,4.99,000.00,019.5,018.5,000.0,027.9,020.8,11.2,0000.0,0003.02,0001.26,0001.00
2023-12-18 11:49:00,SystemResetWarning,0833.4,4.99,000.00,019.5,018.5,000.0,027.9,020.7,11.2,0000.0,0002.96,0001.24,0000.98
2023-12-18 11:50:00,SystemResetWarning,0833.4,4.99,000.00,019.5,018.5,000.0,027.9,020.8,11.2,0000.0,0003.00,0001.23,0000.98
2023-12-18 11:51:00,SystemResetWarning,0833.4,5.00,000.00,019.5,018.5,000.0,027.9,020.7,11.2,0000.0,0002.62,0001.23,0000.99
2023-12-18 11:52:00,SystemResetWarning,0833.4,5.00,000.00,019.5,018.5,000.0,027.9,020.7,11.2,0000.0,0002.15,0001.24,0000.99
2023-12-18 11:53:00,SystemResetWarning,0833.4,5.00,000.00,019.5,018.5,000.0,027.9,020.7,11.2,0000.0,0002.30,0001.23,0000.99
2023-12-18 11:54:00,SystemResetWarning,0833.4,5.00,000.00,019.5,018.5,000.0,027.9,020.7,11.2,0000.0,0002.91,0001.23,0000.98
2023-12-18 11:55:00,SystemResetWarning,0833.4,5.00,000.00,019.5,018.5,000.0,027.9,020.7,11.2,0000.0,0003.76,0001.22,0000.97
2023-12-18 11:56:00,SystemResetWarning,0833.4,5.00,000.00,019.5,018.5,000.0,027.9,020.7,11.2,0000.0,0004.72,0001.21,0000.97
2023-12-18 11:57:00,SystemResetWarning,0833.4,5.00,000.00,019.5,018.5,000.0,027.9,020.7,11.2,0000.0,0004.65,0001.22,0000.98
2023-12-18 11:58:00,SystemResetWarning,0833.4,5.00,000.00,019.5,018.5,000.0,027.9,020.7,11.2,0000.0,0004.56,0001.19,0000.98
2023-12-18 11:59:00,SystemResetWarning,0833.4,5.00,000.00,019.5,018.5,000.0,027.9,020.7,11.2,0000.0,0004.55,0001.19,0000.98
